Overview Statistics Trail Chart Weather Telemetry Raw packets
 

This is the latest recevied weather packets stored in our database for station/object N5ATR. If no packets are shown the sender has not sent any weather packets the latest 10 day(s).

<< 33 34 35 36 37 38 39 >>
Time Temp. Humidity Pressure Rain* Wind** Luminosity Snow
1788466773 27.22° C 33% 1021.9 hPa 0 mm - 326 W/m² -
1788466469 27.22° C 33% 1021.9 hPa 0 mm - 292 W/m² -
1788466167 26.67° C 33% 1021.9 hPa 0 mm - 294 W/m² -
1788465862 27.22° C 32% 1021.8 hPa 0 mm - 596 W/m² -
1788465557 26.67° C 33% 1021.9 hPa 0 mm - 277 W/m² -
1788465254 26.67° C 33% 1021.9 hPa 0 mm - 303 W/m² -
1788464948 27.78° C 32% 1021.9 hPa 0 mm - 275 W/m² -
1788464643 28.33° C 31% 1021.9 hPa 0 mm - 343 W/m² -
1788464339 28.33° C 31% 1022 hPa 0 mm - 442 W/m² -
1788464035 27.78° C 31% 1022.3 hPa 0 mm - 733 W/m² -
1788463730 28.33° C 31% 1022.2 hPa 0 mm - 658 W/m² -
1788463426 27.78° C 31% 1022 hPa 0 mm - 445 W/m² -
1788463123 27.78° C 31% 1022.3 hPa 0 mm - 815 W/m² -
1788462818 27.78° C 30% 1022.2 hPa 0 mm - 759 W/m² -
1788462517 28.33° C 30% 1022.3 hPa 0 mm - 730 W/m² -
1788462212 27.22° C 31% 1022.3 hPa 0 mm - 730 W/m² -
1788461912 26.67° C 33% 1022.5 hPa 0 mm - 714 W/m² -
1788461607 26.67° C 32% 1022.6 hPa 0 mm - 749 W/m² -
1788461303 28.33° C 32% 1023 hPa 0 mm - 668 W/m² -
1788461000 26.67° C 31% 1022.6 hPa 0 mm - 787 W/m² -
1788460700 27.22° C 32% 1023.1 hPa 0 mm - 274 W/m² -
1788460394 26.67° C 33% 1023.4 hPa 0 mm - 856 W/m² -
1788460094 26.11° C 33% 1023 hPa 0 mm - 487 W/m² -
1788459793 26.11° C 33% 1023.3 hPa 0 mm - 885 W/m² -
1788459493 26.11° C 33% 1023.4 hPa 0 mm - 398 W/m² -

* Rain latest hour (hover to see other rain measurements)
** Current wind speed in m/s (hover to see current wind gust speed)